Theta_e
300 299 298 299 298 296 297 299 299 297 297 298 297 297 298 297 296 295 296 297 299 299 299 298 298 297 297 297 297 296 296 295 294 292 294 295 295 295 295 295 295 294 295 295
296 297 298 298 299 299 298 294 294 296 297 298 296 297 296 295 295 297 298 299 300 299 299 298 298 297 297 297 297 296 295 294 292 292 295 295 294 294 294 294 294 294 294 295
297 300 299 299 299 299 298 295 294 298 297 294 294 295 294 295 296 298 298 299 299 299 299 298 298 298 297 297 297 295 294 293 291 292 293 294 293 293 292 290 291 292 293 293
296 300 300 300 299 298 296 297 298 297 293 293 293 295 296 295 295 296 298 298 299 299 299 299 298 298 297 297 295 293 293 292 290 291 292 292 291 290 291 290 289 291 292 292
297 299 300 298 299 297 297 296 297 293 291 290 290 291 295 294 296 295 295 298 299 299 299 299 298 297 296 296 295 292 292 290 289 290 292 291 290 290 289 288 287 289 291 291
294 298 297 298 296 296 294 291 290 286 284 290 285 291 296 295 295 296 296 297 297 297 297 298 298 296 295 296 294 292 291 289 288 290 292 290 289 289 287 287 287 288 290 291
293 296 296 296 297 295 292 287 290 293 290 295 278 290 296 294 293 293 294 297 297 297 297 297 297 296 295 295 294 291 289 289 289 291 290 289 288 287 287 287 286 287 289 290
290 296 291 295 295 291 293 288 290 290 291 291 281 291 296 292 293 294 294 295 296 296 295 295 295 295 295 294 292 288 288 288 290 290 289 288 287 287 287 287 286 287 289 291
290 292 294 296 295 292 291 290 288 283 276 285 287 288 291 292 287 291 293 294 296 296 295 294 294 295 294 293 290 288 288 288 290 289 287 287 287 287 288 288 288 289 291 292
291 292 289 293 295 292 289 290 291 286 289 289 288 282 294 290 287 284 289 293 295 296 295 294 293 294 293 290 288 289 288 290 289 288 287 287 287 288 289 290 291 291 292 292
287 288 290 294 291 292 292 290 287 287 289 290 288 295 286 287 286 286 287 293 296 296 295 294 294 293 291 288 288 288 289 290 289 287 287 287 287 288 290 291 291 292 293 293
293 291 289 290 292 292 291 290 292 293 290 285 289 294 285 285 278 284 290 296 297 296 295 293 293 293 289 288 289 288 291 290 288 286 287 287 288 289 290 292 292 293 293 294
294 288 288 296 292 291 292 292 292 289 291 288 292 297 285 280 284 293 290 297 297 296 294 292 293 292 288 289 288 288 290 289 287 287 287 287 288 290 291 292 293 294 294 294
296 293 292 298 295 287 292 294 293 293 289 294 294 297 298 297 296 294 295 296 295 295 293 293 294 290 288 289 288 289 290 289 287 287 287 287 288 290 291 292 293 294 294 295
296 291 292 290 289 286 290 290 293 292 292 294 298 293 296 297 296 295 295 295 295 294 293 293 292 289 289 289 287 289 291 288 287 287 287 287 288 289 290 291 292 293 294 294
293 293 285 286 292 292 291 292 292 293 293 292 294 294 295 294 294 293 294 294 294 295 293 293 290 289 289 289 288 289 290 289 288 287 287 287 288 288 289 290 290 291 292 293
293 288 286 291 286 285 292 290 293 287 285 290 289 292 280 289 285 290 293 294 294 294 292 292 290 289 289 289 288 288 289 290 288 287 287 287 287 288 288 289 289 290 290 290
293 290 292 290 282 295 296 291 289 288 288 287 287 287 290 290 292 293 294 294 294 293 292 292 290 289 289 289 288 288 289 290 289 288 288 287 287 287 288 288 288 288 288 288
293 294 293 294 282 290 296 290 289 290 293 290 290 291 290 292 290 297 296 294 294 293 292 291 290 289 289 289 288 288 289 289 290 289 289 287 287 287 288 288 288 288 288 288
292 295 298 284 288 290 295 292 291 291 293 291 290 291 290 290 293 291 297 295 294 294 292 291 290 289 289 289 288 288 288 289 289 290 289 289 288 288 287 287 288 288 288 288
290 292 295 284 290 288 290 291 291 293 297 292 293 294 292 291 294 296 295 295 295 295 293 291 290 289 289 289 289 288 288 288 289 289 289 289 289 289 288 288 288 289 289 289
289 290 290 285 289 291 290 290 293 296 296 295 294 296 295 296 296 297 297 296 295 295 294 293 291 290 289 289 289 289 288 288 288 288 288 288 288 289 289 289 290 290 290 291
291 293 290 291 291 292 291 295 296 296 296 296 295 298 295 294 296 297 298 297 298 296 294 293 292 290 290 289 290 289 288 287 287 287 288 288 287 287 287 288 288 288 288 288
284 287 289 291 292 289 292 294 296 296 296 297 297 297 297 297 297 297 298 297 297 297 297 294 293 292 290 289 289 290 289 288 287 287 287 287 287 287 287 287 286 286 286 286
291 287 287 290 289 292 295 295 297 298 298 297 298 298 298 297 297 297 297 296 297 297 297 295 294 293 290 289 289 290 290 289 288 287 287 286 286 286 286 286 286 285 286 285
287 288 292 295 295 296 298 298 299 299 298 298 298 298 298 297 297 297 296 296 297 297 297 296 295 293 291 289 289 290 290 290 289 288 288 287 287 287 287 287 288 288 287 286
Wind_Speed
5 5 1 1 1 3 5 2 2 4 2 4 5 11 23 22 17 21 25 16 12 12 14 19 18 16 16 18 23 28 33 34 36 39 42 43 42 41 38 34 32 31 31 30
6 2 1 5 3 3 3 2 4 4 1 3 7 20 18 9 5 3 2 4 7 11 17 19 17 16 18 21 26 30 33 33 36 38 39 41 43 42 40 37 33 28 27 27
4 1 3 1 1 2 1 2 2 3 7 3 7 8 5 3 4 5 6 6 8 13 15 16 16 16 19 23 28 32 32 34 37 37 39 40 41 41 40 32 33 30 27 27
2 1 2 1 1 3 1 1 1 2 4 3 6 5 7 4 7 4 8 8 9 12 14 16 16 18 20 25 30 31 32 35 37 38 40 40 41 42 38 35 32 29 28 28
4 3 2 1 0 2 1 3 2 3 4 3 5 2 7 4 5 4 4 6 8 12 17 18 19 20 22 26 32 32 33 35 36 37 39 40 40 39 37 31 29 31 28 26
3 1 2 1 3 3 4 4 5 3 3 2 3 2 6 3 4 2 3 7 11 12 14 18 20 22 24 28 34 32 34 35 36 38 39 38 37 36 34 31 30 29 28 24
5 2 3 1 2 2 4 5 3 5 4 4 1 1 11 6 5 5 8 18 12 16 16 21 23 24 25 31 34 30 33 35 34 38 38 36 35 32 31 31 27 26 27 25
3 5 2 4 2 4 2 5 4 5 2 5 2 6 6 7 6 11 17 18 7 16 20 24 24 22 24 32 30 29 32 34 35 37 36 34 31 29 28 26 27 26 26 26
3 4 1 4 2 3 2 1 2 6 2 3 2 8 12 5 6 6 6 7 3 24 26 26 23 21 27 30 26 29 31 31 35 35 34 31 27 25 25 24 24 25 24 24
4 3 1 2 2 6 4 3 4 3 2 5 5 6 6 5 5 4 4 7 12 32 34 29 24 22 22 22 24 27 29 32 34 32 30 28 25 21 21 20 21 21 22 23
4 3 4 1 4 7 1 1 4 3 3 4 3 7 8 8 6 8 11 15 27 37 36 31 24 17 18 20 24 25 26 32 32 29 26 24 21 19 18 18 19 20 20 21
4 4 3 7 0 2 3 5 4 4 5 2 1 9 0 7 5 9 17 29 43 39 34 27 19 17 17 21 23 23 27 29 29 25 24 22 19 16 17 17 18 18 17 18
5 1 3 6 3 3 3 5 3 3 2 7 4 8 3 3 5 17 22 37 41 37 29 23 16 16 17 21 21 21 26 27 26 23 22 20 18 15 16 17 17 14 14 14
7 4 6 6 5 4 3 4 7 5 3 5 14 24 21 24 18 18 28 34 37 31 26 20 15 14 16 19 20 19 24 25 23 21 20 20 17 16 15 15 14 13 12 11
3 5 3 5 6 5 6 7 11 12 10 8 27 10 23 22 19 25 32 37 34 31 26 15 12 13 16 17 16 15 23 23 22 21 20 18 17 16 14 13 11 11 9 8
4 3 2 5 6 5 6 14 19 18 14 15 22 26 27 39 31 27 28 31 30 30 23 13 10 12 16 16 14 13 19 21 22 20 19 17 16 15 14 12 10 9 8 8
6 5 2 5 4 6 8 11 14 6 5 9 7 15 3 10 9 19 23 22 25 22 17 11 9 12 14 14 14 12 16 21 20 19 18 17 16 15 14 13 11 10 9 9
6 5 3 3 3 4 6 4 6 8 7 15 9 9 15 16 26 21 19 18 15 14 13 10 10 11 12 13 12 10 13 15 17 19 19 18 17 16 14 13 13 13 12 12
7 5 3 2 4 8 7 4 7 8 7 14 17 17 20 22 11 15 13 9 11 14 13 10 10 10 11 11 10 8 9 10 14 17 19 18 17 16 15 14 13 13 14 16
4 6 5 3 4 7 5 3 7 4 6 9 17 11 7 3 5 5 14 12 12 14 14 12 11 10 11 10 9 8 7 8 8 12 16 17 16 15 15 15 14 14 15 18
4 3 13 5 6 8 11 6 8 5 7 10 22 12 11 5 8 24 24 22 21 20 18 15 13 12 11 10 9 7 6 7 7 7 9 10 13 14 14 14 14 14 17 19
9 10 5 3 5 10 14 8 8 7 3 10 14 13 15 22 26 28 28 25 23 25 22 18 15 13 12 10 8 7 5 6 6 5 5 6 7 8 9 10 11 12 13 15
4 8 7 13 10 6 27 14 28 10 12 14 15 25 26 27 31 28 31 30 24 22 21 19 18 16 15 11 8 7 5 6 5 4 3 4 5 6 6 7 8 8 10 11
4 7 4 2 9 10 19 30 30 24 28 33 35 38 34 36 35 35 36 36 30 27 25 21 22 20 18 13 10 7 5 5 4 2 0 2 4 4 4 5 7 8 10 11
6 13 7 13 2 5 24 29 33 34 38 37 36 36 37 37 39 40 41 34 27 25 26 22 23 22 19 17 12 8 6 6 5 5 4 5 5 5 4 5 7 7 9 10
10 8 8 10 12 14 29 27 27 29 31 34 37 42 42 41 40 37 34 31 26 26 25 23 23 24 21 21 15 11 9 8 8 8 7 6 5 6 7 7 9 10 11 11
Wind_Direction
19 63 70 185 40 91 122 149 251 260 6 307 256 278 284 295 263 265 277 275 260 233 213 217 229 252 275 301 314 321 323 326 327 326 326 322 318 315 309 302 294 288 285 283
21 101 137 118 86 92 71 115 275 283 210 320 330 297 292 296 275 267 311 266 239 208 205 218 236 260 284 304 314 318 319 322 325 325 326 322 318 314 309 303 295 287 284 284
134 131 140 142 114 86 201 175 266 270 329 69 320 295 322 304 304 280 261 256 225 216 218 229 248 268 286 304 312 315 316 321 321 320 322 321 316 312 310 303 296 292 285 280
143 318 160 74 216 119 317 168 59 14 41 278 22 279 301 318 306 273 264 252 244 240 246 254 266 281 296 310 315 313 316 320 319 317 322 321 317 311 307 299 296 291 289 287
253 154 146 112 314 121 145 47 63 75 97 37 345 59 271 348 323 311 263 258 272 272 267 272 278 287 298 313 319 314 314 319 316 317 319 317 313 308 304 298 291 291 291 288
187 10 52 72 58 58 117 72 44 61 93 11 251 137 277 218 203 278 243 302 312 307 301 285 282 286 297 316 318 312 315 318 317 317 318 316 311 308 302 293 290 289 292 291
349 349 336 41 96 57 75 53 330 351 6 232 268 310 247 269 251 225 278 299 329 334 327 316 302 292 297 315 317 314 317 316 317 318 318 315 311 304 296 294 292 291 288 291
110 326 28 352 89 176 75 144 152 234 271 277 14 238 249 218 208 243 263 274 318 357 335 329 319 293 299 314 315 315 316 317 319 320 318 316 311 304 297 293 289 286 285 293
125 286 334 30 64 88 236 53 157 100 76 26 253 283 287 259 273 244 252 270 280 350 343 333 323 308 305 311 316 319 320 318 322 322 321 317 313 306 300 295 293 290 290 295
199 2 267 242 89 42 137 140 48 9 342 302 285 276 240 292 266 303 281 282 291 330 336 334 324 317 310 315 320 322 322 323 325 328 324 322 316 310 304 301 299 296 297 298
136 98 289 59 199 179 85 8 47 124 130 190 293 261 215 234 229 265 290 310 317 325 331 330 329 320 319 323 324 324 327 330 333 330 327 323 322 317 308 306 306 302 301 297
193 140 219 221 134 137 158 186 163 134 242 221 178 270 214 240 245 264 282 307 319 323 328 330 329 322 326 324 328 329 335 340 335 335 332 331 328 322 318 316 314 308 308 305
182 313 358 335 16 6 212 194 167 126 99 200 168 265 270 247 293 281 281 309 315 322 328 330 328 323 325 329 331 333 342 345 338 341 337 337 335 328 324 323 319 312 310 312
168 179 188 207 208 135 197 190 209 167 153 233 230 273 282 287 294 295 303 309 315 318 327 326 324 320 326 333 335 335 349 346 344 347 344 343 345 337 331 331 329 324 319 316
169 216 225 256 239 194 226 204 214 204 213 213 272 237 272 285 291 293 298 303 311 320 330 319 317 319 328 335 337 339 354 349 354 353 350 351 352 349 340 340 341 340 338 338
183 239 113 285 274 268 265 243 234 237 236 250 259 277 270 274 284 280 292 299 304 319 328 309 310 319 331 334 339 344 358 355 1 359 357 358 0 360 358 356 360 360 357 351
165 152 122 257 337 336 293 236 218 185 208 194 186 233 330 301 285 286 301 303 307 322 320 308 304 316 330 334 339 347 358 1 5 8 8 9 7 7 6 4 1 8 16 13
165 156 177 254 4 254 245 208 177 184 209 215 264 267 265 260 293 303 303 291 314 319 312 305 299 316 328 335 340 348 0 359 9 16 18 20 19 17 15 19 26 33 38 47
165 160 179 235 201 304 288 182 161 172 272 204 220 247 261 282 293 308 315 297 312 312 302 296 297 312 323 330 338 339 356 347 9 24 25 26 27 31 34 38 44 51 58 59
241 226 200 127 200 238 240 185 163 129 282 196 184 217 224 207 334 271 320 292 304 311 304 291 291 299 315 322 333 330 341 336 350 16 28 28 32 39 43 46 54 62 68 74
166 196 216 194 241 282 248 162 149 107 240 175 192 215 187 201 260 310 306 299 296 299 297 291 287 286 301 312 323 324 326 319 327 2 17 21 35 42 47 53 57 63 68 71
166 170 191 143 208 275 182 116 186 209 221 187 201 240 252 295 302 308 315 308 300 294 284 285 283 278 284 298 308 311 315 305 309 332 5 10 21 33 37 41 45 48 52 61
228 194 185 190 208 222 185 207 217 225 234 233 279 297 295 297 299 305 310 308 308 303 284 276 280 273 270 279 289 294 302 295 292 310 352 16 15 33 43 46 54 59 63 68
259 178 218 111 202 231 228 234 244 248 254 268 286 292 296 295 297 299 301 303 295 298 291 277 268 265 260 262 269 273 276 275 261 260 23 68 61 57 65 72 73 76 79 73
200 155 182 252 218 284 255 252 259 264 267 271 286 290 292 292 292 296 299 298 291 293 282 275 268 257 253 247 252 252 247 247 226 189 159 123 105 91 80 88 86 77 80 78
188 177 192 238 146 215 260 262 263 263 264 284 286 288 289 290 291 293 292 294 289 293 287 267 269 242 238 236 237 234 231 221 215 193 168 147 126 107 103 97 98 95 84 81